Terug naar catalogus

MOLNIYA 1-40

ActiefCommunicatieHEO
NORAD 10925·PAYLOAD·🇷🇺 Russia

Gelanceerd Jun 2, 1978 vanaf Plesetsk Cosmodrome

Loading…

Volgende Passages (komende 24 uur)

TLE

VersSource: Space-Track

Epoch: Sep 14, 2026, 09:44 UTC

1 10925U 78055A   26257.40602127 -.00000214  00000-0  00000-0 0  9994
2 10925  64.0175 212.9845 6710357 273.6441  17.9060  2.00690324353773

Volg MOLNIYA 1-40 in realtime met AllMySat

Download on the App Store